This demonstration page uses our WeatherBlox Daily Observations layout. Learn more.

Left ArrowRight Arrow

34.02893, -84.19858

Hourly Observations for May 11, 2022

Temp ( °F °C ) Dew Point ( °F °C ) Humidity (%) Winds ( mph kmh ) Pressure ( in mb ) Visibility ( mi km ) Precip ( " mm )
12:53 am 00:53 Clear 60 15.6 54 12.2 80 80 Calm 30.16 1021 10 16 0.00 0.00
1:53 am 01:53 Clear 58 14.4 54 12.2 87 87 Calm 30.14 1021 10 16 0.00 0.00
2:53 am 02:53 Clear 56 13.3 53 11.7 90 90 Calm 30.14 1021 9 14 0.00 0.00
3:53 am 03:53 Clear 57 13.9 53 11.7 87 87 Calm 30.14 1021 10 16 0.00 0.00
4:53 am 04:53 Clear 58 14.4 51 10.6 78 78 Calm 30.15 1021 10 16 0.00 0.00
5:53 am 05:53 Clear 61 16.1 49 9.4 65 65 VRB 3 6 30.17 1022 10 16 0.00 0.00
6:53 am 06:53 Sunny 60 15.6 48 8.9 65 65 VRB 3 6 30.20 1023 10 16 0.00 0.00
7:53 am 07:53 Sunny 60 15.6 48 8.9 65 65 Calm 30.23 1024 10 16 0.00 0.00
8:53 am 08:53 Sunny 64 17.8 50 10 60 60 Calm 30.25 1024 10 16 0.00 0.00
9:53 am 09:53 Sunny 67 19.4 50 10 55 55 ENE 5 7 30.25 1025 10 16 0.00 0.00
10:53 am 10:53 Mostly Sunny 70 21.1 48 8.9 46 46 VRB 3 6 30.24 1024 9 14 0.00 0.00
11:53 am 11:53 Partly Cloudy 73 22.8 48 8.9 41 41 VRB 6 9 30.23 1024 10 16 0.00 0.00
12:53 pm 12:53 Sunny 76 24.4 49 9.4 39 39 WNW 6 9 30.19 1022 10 16 0.00 0.00
1:53 pm 13:53 Sunny 80 26.7 52 11.1 38 38 VRB 5 7 30.15 1021 10 16 0.00 0.00
2:53 pm 14:53 Sunny 81 27.2 54 12.2 39 39 NW 6 9 30.11 1020 10 16 0.00 0.00
3:53 pm 15:53 Sunny 82 27.8 55 12.8 40 40 NNW 8 13 30.09 1019 10 16 0.00 0.00
4:53 pm 16:53 Sunny 84 28.9 57 13.9 40 40 N 8 13 30.06 1018 10 16 0.00 0.00
5:53 pm 17:53 Sunny 83 28.3 58 14.4 43 43 NNW 7 11 30.04 1017 10 16 0.00 0.00
6:53 pm 18:53 Sunny 82 27.8 60 15.6 47 47 N 9 15 30.04 1017 10 16 0.00 0.00
7:53 pm 19:53 Mostly Cloudy 80 26.7 61 16.1 52 52 NW 9 15 30.03 1017 10 16 0.00 0.00
8:53 pm 20:53 Mostly Cloudy 77 25 62 16.7 60 60 W 5 7 30.04 1017 10 16 0.00 0.00
9:53 pm 21:53 Partly Cloudy 72 22.2 62 16.7 71 71 Calm 30.05 1018 10 16 0.00 0.00
10:53 pm 22:53 Clear 73 22.8 59 15 62 62 VRB 3 6 30.08 1019 10 16 0.00 0.00
11:53 pm 23:53 Mostly Clear 70 21.1 57 13.9 64 64 Calm 30.08 1019 10 16 0.00 0.00

Powered by AerisWeather